Vertical_Velocity
-3 4 -2 -23 -7 2 4 2 -2 1 0 11 -7 -5 -17 -7 6 4 3 5 -4 -3 2 1 -3 -2 1 1 2 0 3 -2 1 3 3 2 -0 0 -0 1 1 1 1 -0
-1 -1 -12 9 11 5 1 1 -13 -8 2 10 8 -10 -12 -0 -15 1 -2 12 1 2 -3 -1 -1 -2 0 -1 3 1 1 2 2 2 2 1 -2 0 1 1 1 2 1 -0
-7 3 2 1 1 0 -2 -9 -1 -4 5 1 9 -6 -7 1 -5 -3 1 7 -4 -0 -3 1 -0 -1 1 1 1 1 -0 1 4 2 2 0 -1 -0 1 1 1 1 1 0
9 -5 6 3 -9 7 -1 16 4 7 11 -7 19 -11 -15 -5 -5 4 -1 2 -6 0 -2 -2 -2 2 0 -1 -1 -2 -1 2 2 2 0 0 1 -1 0 -0 2 2 1 -1
-13 -2 -1 -10 -5 5 -32 4 6 4 -4 21 -14 21 -36 5 -4 -9 -4 -1 -1 3 -4 -1 1 1 1 -1 -1 0 0 2 2 0 -1 -1 -1 1 1 1 2 1 1 1
2 8 -1 -4 8 -6 21 1 3 4 6 15 -16 15 -15 -14 -20 -5 19 3 -5 2 -5 1 3 1 0 -1 -0 1 3 2 2 3 1 -1 -2 1 0 0 1 1 1 1
8 -8 -0 -3 -0 2 15 7 -0 5 9 -12 -1 7 -33 10 -2 -6 -4 -10 -1 -2 -5 3 4 -1 1 0 1 0 1 1 0 -1 -1 -1 -1 -1 0 1 -0 -1 -1 -2
-3 -4 -2 2 -19 -7 -13 -8 -6 -4 -2 -6 9 -3 -69 7 -2 12 8 6 5 -0 -0 5 3 3 1 1 3 0 1 2 -0 0 1 1 -0 1 1 0 -0 0 -0 -1
-2 -3 -4 -1 11 12 -15 3 -16 4 3 2 -2 -2 12 3 -1 -2 -6 1 0 -3 2 3 2 2 0 -0 4 1 2 2 -0 0 0 2 0 1 0 -0 -1 0 -1 -1
-6 -2 -2 -19 12 -5 -6 -3 5 8 1 1 2 1 -8 2 -2 2 -4 0 -2 1 2 1 -2 -0 0 0 3 2 2 0 -1 -1 1 1 -1 0 -0 0 0 0 -0 -0
4 9 -10 -5 13 -14 4 18 2 0 2 1 -2 -7 -1 -8 -4 -5 2 3 0 1 -2 -0 -1 1 2 2 3 3 1 -0 -1 1 1 -0 -0 1 0 2 1 1 0 0
-10 11 -1 -20 -3 2 12 -8 -6 -4 5 -11 1 -3 -2 9 6 3 -1 0 4 4 3 2 3 2 -0 3 2 3 -0 0 -1 1 -0 1 1 0 1 1 1 0 -1 -2
-4 5 -2 7 17 9 7 -12 -12 -2 14 -4 -5 0 6 6 -3 -2 -0 -0 2 0 -1 -1 -2 1 3 2 3 2 1 1 1 1 1 1 1 2 1 1 -0 -1 0 -1
-0 7 -6 -1 2 -5 8 10 21 -6 8 8 -0 -6 7 -2 -1 -2 -5 -0 1 1 1 2 0 3 3 1 2 1 3 2 2 1 2 1 2 1 1 -0 0 1 -1 -1
6 -0 12 0 -3 4 -15 -11 -15 -5 21 -2 4 -6 -7 -2 -1 1 -1 -2 -2 -2 -3 -2 -0 3 3 1 1 1 3 4 2 2 1 2 1 1 -0 1 1 -1 -1 -1
-7 -6 8 2 -12 -7 -7 -7 17 18 7 -3 -1 0 11 8 5 -3 -1 -1 -1 -0 -1 0 1 2 3 2 2 4 5 2 2 2 1 2 1 1 1 1 -0 0 1 -0
-1 -3 -2 5 4 12 10 -14 -3 4 5 -0 2 0 1 2 3 -1 4 -1 -3 -4 -2 -0 1 2 2 4 4 3 3 4 2 0 1 0 1 2 -0 0 0 -0 -1 -1
2 4 5 -1 3 -4 5 -1 2 -2 3 -2 -1 10 6 -1 -1 0 -1 0 -1 -1 1 1 1 0 1 2 4 4 2 0 1 2 2 2 1 -0 -1 -0 -1 -1 -1 -2
5 5 -2 -2 0 -1 4 4 0 -6 -0 3 -2 2 5 4 5 2 -1 -3 -1 1 0 1 3 1 1 2 2 2 1 1 2 2 2 1 0 -0 -0 -1 -0 -1 -0 -2
-2 4 5 -0 1 -2 1 1 -0 2 -7 2 -1 -5 -2 -1 -5 -0 3 2 1 -0 -0 1 1 2 1 1 1 1 2 1 1 2 1 0 -0 1 -1 -0 -0 -1 -3 -2
4 3 -3 -1 -2 -5 1 -1 -0 1 -3 0 0 -0 -0 -1 9 3 4 3 1 1 1 2 2 3 2 2 3 2 1 2 1 1 0 -0 0 -0 0 -1 -3 -3 0 1
-4 -4 -2 1 -2 -11 -0 1 -2 -2 -0 0 -1 -3 -2 1 2 1 1 2 2 2 3 2 1 0 1 2 1 1 1 1 1 1 1 -1 -1 -1 -1 -2 -1 -0 -1 -2
-4 -14 -13 -17 -13 3 4 2 2 0 -1 -2 -1 -1 1 3 4 4 2 2 0 1 1 1 0 2 2 2 2 2 1 1 0 0 -0 -1 -0 -2 -3 -2 1 -1 -2 -2
-0 2 -4 4 -6 -1 1 1 -1 2 1 -0 -0 -0 0 1 1 1 1 0 0 -0 -0 -0 -0 0 -0 1 -0 1 1 -0 0 1 -0 -1 -2 -1 -0 0 -2 -2 -3 -1
0 1 -1 -2 -3 -2 -1 -1 -1 -1 -0 1 -1 -1 -0 -0 -0 -0 -0 -0 0 0 -0 1 1 -1 1 0 -0 0 -0 1 0 0 -1 -1 -1 -0 0 -2 -5 -2 -1 -7
-4 -2 -8 -8 8 -1 2 -0 2 1 1 0 -0 -0 -0 -1 -1 -1 -1 -0 0 0 0 -0 1 1 0 -1 1 1 0 -1 -1 -1 -1 -0 -1 -0 -1 -0 6 2 -2 0
Height
3052 3050 3049 3058 3061 3065 3068 3068 3068 3068 3074 3076 3074 3076 3078 3081 3085 3086 3087 3090 3089 3091 3094 3095 3095 3096 3098 3100 3102 3103 3105 3106 3108 3109 3108 3109 3109 3109 3108 3107 3106 3104 3102 3100
3047 3038 3049 3054 3058 3061 3063 3063 3058 3062 3067 3072 3070 3068 3071 3074 3076 3080 3081 3084 3084 3085 3088 3090 3091 3093 3094 3096 3098 3100 3101 3103 3104 3105 3105 3105 3105 3105 3105 3104 3103 3100 3098 3096
3037 3039 3044 3048 3052 3054 3055 3055 3055 3060 3064 3063 3066 3060 3060 3063 3068 3072 3075 3078 3078 3080 3083 3085 3087 3089 3091 3093 3094 3096 3098 3100 3101 3102 3102 3103 3102 3102 3102 3101 3099 3097 3095 3093
3032 3036 3040 3043 3043 3049 3048 3051 3056 3058 3065 3059 3060 3050 3047 3052 3057 3062 3066 3069 3071 3074 3078 3080 3083 3085 3087 3089 3091 3092 3095 3097 3098 3099 3099 3099 3099 3099 3098 3097 3096 3094 3090 3087
3022 3025 3032 3034 3032 3046 3041 3051 3052 3057 3057 3058 3053 3051 3036 3046 3049 3052 3056 3060 3065 3067 3072 3074 3078 3080 3082 3085 3088 3090 3092 3093 3094 3095 3096 3096 3096 3096 3095 3094 3092 3090 3086 3082
3019 3024 3027 3027 3034 3039 3041 3046 3048 3051 3055 3048 3043 3049 3033 3036 3038 3041 3046 3053 3057 3060 3065 3068 3072 3075 3078 3081 3084 3087 3089 3090 3092 3092 3093 3093 3093 3092 3090 3089 3087 3084 3080 3076
3013 3016 3021 3024 3028 3032 3038 3045 3047 3047 3048 3030 3034 3040 3032 3030 3030 3034 3037 3043 3048 3054 3058 3061 3066 3069 3073 3077 3080 3083 3086 3087 3088 3089 3089 3089 3088 3087 3086 3083 3080 3077 3074 3070
3010 3013 3013 3014 3018 3024 3027 3034 3038 3036 3027 3025 3031 3024 3023 3024 3024 3030 3034 3038 3043 3047 3051 3056 3061 3064 3069 3073 3077 3080 3082 3084 3085 3086 3086 3085 3084 3083 3081 3078 3075 3071 3068 3064
3005 3004 3005 3007 3012 3019 3020 3024 3028 3030 3022 3024 3020 3021 3020 3019 3020 3025 3029 3033 3037 3042 3046 3051 3055 3059 3064 3069 3073 3076 3079 3080 3081 3082 3082 3081 3080 3078 3076 3073 3069 3066 3062 3058
3000 2999 3000 3001 3006 3009 3014 3019 3029 3026 3020 3018 3009 3009 3007 3011 3014 3019 3024 3028 3033 3038 3041 3044 3049 3055 3060 3065 3069 3072 3075 3077 3078 3078 3078 3076 3075 3073 3070 3067 3064 3060 3056 3051
2996 2997 2995 2994 2990 2989 3001 3006 3016 3020 3017 3009 3010 3005 3005 3006 3011 3016 3021 3026 3030 3034 3037 3040 3045 3051 3056 3061 3065 3069 3071 3072 3073 3073 3073 3072 3069 3067 3065 3061 3057 3053 3048 3043
2989 2989 2985 2982 2981 2987 2998 3001 3006 3010 3004 3008 2996 3001 3001 3006 3011 3016 3020 3024 3028 3032 3035 3038 3044 3048 3052 3057 3062 3065 3066 3068 3069 3069 3067 3066 3064 3061 3058 3054 3050 3046 3041 3035
2985 2983 2981 2975 2978 2977 2986 2994 2997 2997 2997 2993 2992 3000 3002 3007 3010 3014 3018 3022 3025 3029 3032 3036 3041 3045 3050 3054 3058 3061 3062 3063 3063 3063 3062 3060 3057 3054 3051 3047 3043 3038 3033 3028
2982 2980 2975 2971 2971 2972 2972 2981 2992 2995 2995 2990 2989 2995 3001 3005 3010 3012 3016 3020 3024 3027 3030 3033 3037 3042 3047 3050 3053 3056 3057 3058 3058 3057 3056 3053 3050 3047 3044 3039 3035 3030 3025 3019
2979 2973 2969 2967 2965 2971 2975 2976 2983 2989 2993 2987 2993 2997 3002 3006 3010 3013 3016 3020 3022 3025 3027 3030 3034 3039 3043 3046 3048 3051 3052 3053 3052 3051 3049 3046 3043 3040 3036 3032 3027 3022 3016 3010
2976 2970 2965 2962 2966 2971 2975 2977 2984 2991 2992 2994 2997 2999 3004 3007 3009 3013 3016 3018 3021 3023 3025 3028 3031 3035 3039 3042 3044 3046 3047 3047 3046 3044 3042 3039 3036 3032 3028 3024 3019 3014 3009 3003
2977 2976 2973 2973 2973 2976 2980 2977 2983 2986 2988 2992 2996 3000 3002 3005 3008 3011 3013 3016 3019 3022 3024 3026 3029 3032 3035 3037 3039 3041 3041 3040 3039 3038 3035 3032 3028 3024 3020 3016 3011 3005 3000 2994
2979 2980 2979 2977 2978 2981 2979 2979 2982 2984 2987 2990 2995 2999 3001 3003 3006 3009 3011 3014 3017 3020 3021 3023 3026 3028 3030 3032 3034 3035 3034 3034 3032 3030 3028 3024 3021 3017 3013 3008 3002 2997 2992 2986
2978 2981 2981 2981 2979 2979 2978 2979 2980 2980 2983 2987 2991 2995 2998 3000 3003 3005 3008 3012 3015 3017 3018 3019 3022 3023 3025 3027 3028 3028 3028 3027 3025 3023 3020 3017 3013 3009 3005 3000 2995 2989 2984 2979
2977 2979 2983 2982 2981 2979 2978 2978 2978 2980 2981 2982 2986 2990 2993 2997 3000 3003 3005 3008 3010 3012 3014 3016 3017 3019 3020 3022 3023 3023 3022 3020 3018 3016 3013 3010 3006 3002 2997 2993 2988 2982 2976 2971
2974 2977 2979 2980 2979 2976 2976 2977 2978 2981 2984 2980 2982 2986 2989 2992 2997 3001 3003 3005 3007 3009 3010 3011 3013 3015 3016 3017 3017 3017 3015 3014 3012 3009 3006 3002 2998 2994 2990 2986 2981 2975 2969 2963
2969 2974 2976 2980 2981 2978 2974 2977 2980 2980 2980 2980 2982 2984 2987 2990 2994 2997 2999 3001 3003 3005 3007 3010 3011 3012 3012 3013 3012 3011 3009 3007 3005 3002 2998 2995 2991 2987 2983 2978 2974 2969 2960 2952
2966 2967 2969 2972 2971 2971 2973 2975 2977 2979 2980 2981 2982 2983 2985 2988 2991 2993 2995 2998 3000 3003 3004 3006 3007 3007 3008 3007 3006 3004 3003 3000 2998 2995 2992 2989 2985 2981 2976 2972 2966 2959 2951 2944
2961 2963 2965 2968 2969 2970 2972 2974 2976 2978 2979 2980 2981 2982 2984 2986 2988 2990 2993 2995 2998 3000 3001 3002 3002 3002 3002 3001 3000 2998 2996 2994 2991 2989 2986 2983 2979 2975 2971 2965 2957 2950 2943 2936
2959 2959 2961 2963 2965 2966 2969 2972 2974 2976 2977 2978 2980 2981 2983 2985 2987 2989 2991 2993 2995 2996 2997 2997 2997 2997 2997 2995 2994 2992 2990 2988 2986 2983 2980 2977 2973 2969 2964 2957 2950 2943 2937 2929
2955 2956 2957 2958 2963 2966 2969 2971 2973 2974 2976 2977 2978 2980 2981 2984 2986 2988 2990 2991 2992 2992 2993 2994 2993 2992 2992 2990 2988 2986 2985 2983 2980 2977 2974 2971 2967 2962 2955 2949 2945 2940 2931 2923